When you browse on this site, cookies collect data to enhance your experience and personalize the content and advertising you see.
Visit our Privacy Policy to learn more. By continuing to use the site, you agree to this use of cookies and data.
  • en Suisse
  • Liste des pays
  • À 7 jours
  • Température de l'eau
  • Carte satellitaire
  • Carte météo
  • Widgets météo
  • user-avatar
    Se connecter

    Météo par heure à Pinang

    Ce jour, 20 Mars, Mercredi

    Heure Température Précipitation Vent Pression Humidité
    00:00 +27°C° 0.6 mm 2 m/s 755 mmHg 91%
    01:00 +26°C° 0 mm 1 m/s 755 mmHg 96%
    02:00 +26°C° 0.8 mm 1 m/s 755 mmHg 96%
    03:00 +26°C° 0.8 mm 1 m/s 755 mmHg 96%
    04:00 +26°C° 0.8 mm 1 m/s 755 mmHg 96%
    05:00 +26°C° 0 mm 2 m/s 755 mmHg 95%
    06:00 +26°C° 0 mm 2 m/s 755 mmHg 95%
    07:00 +27°C° 0 mm 2 m/s 755 mmHg 91%
    08:00 +29°C° 0 mm 2 m/s 756 mmHg 81%
    09:00 +31°C° 0 mm 2 m/s 756 mmHg 70%
    10:00 +34°C° 0 mm 2 m/s 756 mmHg 60%
    11:00 +35°C° 0 mm 3 m/s 755 mmHg 56%
    12:00 +35°C° 0 mm 3 m/s 755 mmHg 52%
    13:00 +36°C° 0 mm 3 m/s 754 mmHg 48%
    14:00 +36°C° 0 mm 3 m/s 754 mmHg 50%
    15:00 +35°C° 0 mm 3 m/s 753 mmHg 52%
    16:00 +35°C° 0 mm 3 m/s 753 mmHg 54%
    17:00 +33°C° 0 mm 3 m/s 753 mmHg 62%
    18:00 +30°C° 0 mm 3 m/s 753 mmHg 71%
    19:00 +28°C° 0 mm 2 m/s 754 mmHg 80%
    20:00 +28°C° 0.1 mm 2 m/s 754 mmHg 83%
    21:00 +27°C° 0.1 mm 2 m/s 755 mmHg 86%
    22:00 +27°C° 0.1 mm 2 m/s 755 mmHg 89%
    23:00 +27°C° 0 mm 1 m/s 755 mmHg 90%

    Demain, 21 Mars, Jeudi

    Heure Température Précipitation Vent Pression Humidité
    00:00 +27°C° 0 mm 1 m/s 755 mmHg 90%
    01:00 +27°C° 0 mm 1 m/s 755 mmHg 91%
    02:00 +26°C° 0.4 mm 1 m/s 755 mmHg 93%
    03:00 +26°C° 0.4 mm 1 m/s 755 mmHg 94%
    04:00 +26°C° 0.4 mm 1 m/s 754 mmHg 95%
    05:00 +26°C° 0.7 mm 1 m/s 755 mmHg 95%
    06:00 +26°C° 0.7 mm 1 m/s 755 mmHg 95%
    07:00 +26°C° 0.7 mm 1 m/s 755 mmHg 95%
    08:00 +28°C° 0.7 mm 1 m/s 756 mmHg 87%
    09:00 +30°C° 0.7 mm 2 m/s 756 mmHg 79%
    10:00 +32°C° 0.7 mm 2 m/s 756 mmHg 72%
    11:00 +32°C° 0.7 mm 2 m/s 756 mmHg 71%
    12:00 +33°C° 0.7 mm 3 m/s 755 mmHg 70%
    13:00 +34°C° 0.7 mm 3 m/s 754 mmHg 69%
    14:00 +33°C° 1.4 mm 3 m/s 754 mmHg 71%
    15:00 +32°C° 1.4 mm 2 m/s 754 mmHg 73%
    16:00 +32°C° 1.4 mm 2 m/s 753 mmHg 74%
    17:00 +30°C° 0.3 mm 2 m/s 753 mmHg 78%
    18:00 +29°C° 0.3 mm 2 m/s 754 mmHg 83%
    19:00 +27°C° 0.3 mm 2 m/s 754 mmHg 87%
    20:00 +27°C° 0 mm 1 m/s 755 mmHg 88%
    21:00 +27°C° 0 mm 1 m/s 756 mmHg 90%
    22:00 +26°C° 0 mm 1 m/s 756 mmHg 91%
    23:00 +26°C° 0.2 mm 1 m/s 756 mmHg 92%

    Après-demain, 22 Mars, Vendredi

    Heure Température Précipitation Vent Pression Humidité
    00:00 +26°C° 0.2 mm 1 m/s 756 mmHg 93%
    01:00 +24°C° 0.2 mm 0 m/s 756 mmHg 95%
    02:00 +26°C° 0.4 mm 1 m/s 756 mmHg 96%
    03:00 +25°C° 0.4 mm 1 m/s 755 mmHg 97%
    04:00 +25°C° 0.4 mm 1 m/s 755 mmHg 98%
    05:00 +25°C° 0 mm 1 m/s 755 mmHg 97%
    06:00 +26°C° 0 mm 1 m/s 755 mmHg 96%
    07:00 +26°C° 0 mm 1 m/s 756 mmHg 95%
    08:00 +29°C° 0 mm 1 m/s 756 mmHg 81%
    09:00 +32°C° 0 mm 1 m/s 756 mmHg 68%
    10:00 +35°C° 0 mm 1 m/s 757 mmHg 54%
    11:00 +36°C° 0 mm 1 m/s 756 mmHg 50%
    12:00 +37°C° 0 mm 1 m/s 755 mmHg 46%
    13:00 +40°C° 0 mm 2 m/s 754 mmHg 41%
    14:00 +38°C° 0.1 mm 2 m/s 754 mmHg 48%
    15:00 +36°C° 0.1 mm 2 m/s 753 mmHg 54%
    16:00 +35°C° 0.1 mm 2 m/s 752 mmHg 60%
    17:00 +32°C° 0.2 mm 2 m/s 753 mmHg 69%
    18:00 +30°C° 0.2 mm 2 m/s 753 mmHg 79%
    19:00 +28°C° 0.2 mm 2 m/s 754 mmHg 89%
    20:00 +28°C° 0.2 mm 2 m/s 754 mmHg 90%
    21:00 +27°C° 0.2 mm 2 m/s 755 mmHg 92%
    22:00 +27°C° 0.2 mm 2 m/s 756 mmHg 93%
    23:00 +27°C° 0.1 mm 1 m/s 755 mmHg 95%

    23 Mars, Samedi

    Heure Température Précipitation Vent Pression Humidité
    00:00 +27°C° 0.1 mm 1 m/s 755 mmHg 96%
    01:00 +27°C° 0.1 mm 1 m/s 755 mmHg 97%
    02:00 +25°C° 0.1 mm 0 m/s 754 mmHg 97%
    03:00 +24°C° 0.1 mm 0 m/s 754 mmHg 97%
    04:00 +24°C° 0.1 mm 0 m/s 754 mmHg 97%
    05:00 +24°C° 0 mm 0 m/s 754 mmHg 96%
    06:00 +27°C° 0 mm 1 m/s 755 mmHg 96%
    07:00 +27°C° 0 mm 1 m/s 755 mmHg 95%
    08:00 +29°C° 0 mm 1 m/s 756 mmHg 83%
    09:00 +32°C° 0 mm 1 m/s 756 mmHg 71%
    10:00 +35°C° 0 mm 2 m/s 756 mmHg 58%
    11:00 +36°C° 0 mm 2 m/s 756 mmHg 54%
    12:00 +37°C° 0 mm 2 m/s 755 mmHg 50%
    13:00 +38°C° 0 mm 3 m/s 754 mmHg 46%
    14:00 +37°C° 0 mm 3 m/s 753 mmHg 49%
    15:00 +36°C° 0 mm 3 m/s 753 mmHg 51%
    16:00 +36°C° 0 mm 3 m/s 752 mmHg 53%
    17:00 +34°C° 0 mm 2 m/s 753 mmHg 62%
    18:00 +31°C° 0 mm 2 m/s 753 mmHg 70%
    19:00 +29°C° 0 mm 2 m/s 754 mmHg 79%
    20:00 +28°C° 0 mm 2 m/s 754 mmHg 81%
    21:00 +28°C° 0 mm 1 m/s 755 mmHg 83%
    22:00 +27°C° 0 mm 1 m/s 755 mmHg 86%
    23:00 +27°C° 0 mm 1 m/s 755 mmHg 87%

    24 Mars, Dimanche

    Heure Température Précipitation Vent Pression Humidité
    00:00 +25°C° 0 mm 0 m/s 755 mmHg 89%
    01:00 +25°C° 0 mm 0 m/s 754 mmHg 90%
    02:00 +24°C° 0 mm 0 m/s 754 mmHg 92%
    03:00 +24°C° 0 mm 0 m/s 754 mmHg 93%
    04:00 +24°C° 0 mm 0 m/s 754 mmHg 95%
    05:00 +24°C° 0 mm 0 m/s 754 mmHg 93%
    06:00 +24°C° 0 mm 0 m/s 755 mmHg 92%
    07:00 +25°C° 0 mm 0 m/s 755 mmHg 90%
    08:00 +27°C° 0 mm 0 m/s 755 mmHg 78%
    09:00 +32°C° 0 mm 1 m/s 756 mmHg 65%
    10:00 +35°C° 0 mm 1 m/s 756 mmHg 53%
    11:00 +35°C° 0 mm 1 m/s 755 mmHg 49%
    12:00 +37°C° 0 mm 2 m/s 754 mmHg 46%
    13:00 +38°C° 0 mm 2 m/s 753 mmHg 42%
    14:00 +37°C° 0 mm 3 m/s 753 mmHg 45%
    15:00 +37°C° 0 mm 3 m/s 752 mmHg 48%
    16:00 +36°C° 0 mm 3 m/s 752 mmHg 50%
    17:00 +34°C° 0 mm 2 m/s 753 mmHg 59%
    18:00 +31°C° 0 mm 2 m/s 753 mmHg 68%
    19:00 +29°C° 0 mm 2 m/s 754 mmHg 76%
    20:00 +29°C° 0.2 mm 2 m/s 754 mmHg 80%
    21:00 +28°C° 0.2 mm 2 m/s 755 mmHg 84%
    22:00 +27°C° 0.2 mm 2 m/s 755 mmHg 87%
    23:00 +27°C° 0.3 mm 1 m/s 755 mmHg 89%

    25 Mars, Lundi

    Heure Température Précipitation Vent Pression Humidité
    00:00 +27°C° 0.3 mm 1 m/s 755 mmHg 91%
    01:00 +27°C° 0.3 mm 1 m/s 755 mmHg 93%
    02:00 +27°C° 0.3 mm 1 m/s 754 mmHg 93%
    03:00 +26°C° 0.3 mm 1 m/s 754 mmHg 94%
    04:00 +26°C° 0.3 mm 1 m/s 754 mmHg 95%
    05:00 +26°C° 0 mm 1 m/s 755 mmHg 94%
    06:00 +27°C° 0 mm 1 m/s 755 mmHg 93%
    07:00 +27°C° 0 mm 1 m/s 756 mmHg 92%
    08:00 +29°C° 0.1 mm 1 m/s 756 mmHg 82%
    09:00 +31°C° 0.1 mm 2 m/s 756 mmHg 72%
    10:00 +34°C° 0.1 mm 2 m/s 757 mmHg 62%
    11:00 +34°C° 1.1 mm 2 m/s 756 mmHg 67%
    12:00 +32°C° 1.1 mm 2 m/s 755 mmHg 72%
    13:00 +33°C° 1.1 mm 3 m/s 754 mmHg 77%
    14:00 +33°C° 1.1 mm 3 m/s 754 mmHg 78%
    15:00 +31°C° 1.1 mm 3 m/s 754 mmHg 79%
    16:00 +31°C° 1.1 mm 3 m/s 754 mmHg 80%
    17:00 +30°C° 0.5 mm 3 m/s 754 mmHg 85%
    18:00 +29°C° 0.5 mm 2 m/s 755 mmHg 90%
    19:00 +27°C° 0.5 mm 2 m/s 755 mmHg 94%
    20:00 +27°C° 0.2 mm 2 m/s 756 mmHg 95%
    21:00 +27°C° 0.2 mm 2 m/s 756 mmHg 95%
    22:00 +27°C° 0.2 mm 1 m/s 757 mmHg 95%
    23:00 +27°C° 0.2 mm 1 m/s 757 mmHg 96%
    Voir plus